Location: Treviso
(45.6669°N, 12.2430°E)
Time: 06:21:50
(UTC+01:00)

ISS - Pass Details

Date: 22 January 2021
Orbit: 418 x 421 km, 51.6° (Epoch: 23 January)

Event Time Altitude Azimuth Distance (km) Brightness Sun altitude
Rises 18:40:57 0° 249° (WSW) 2,363 1.7 -16.9°
Reaches altitude 10° 18:43:04 10° 252° (WSW) 1,502 0.3 -17.3°
Maximum altitude 18:46:24 65° 334° (NNW) 466 -3.6 -17.9°
Enters shadow 18:47:08 48° 34° (NE) 559 -3.5 -18.0°
